Private Wetterstation Wechselburg
Wetterdaten: Dienstag, 12.01.2010
Datum Zeit Temp. +2m Bodentemp. Temp.+5cm Temp. Wind Windchill X Diff Temp. Feuchte +2m Feuchte +5cm Sonnenschein Luftdruck Regen Wind Richtung Richtung Sonnenschein UV Taupunkt Windchill Windben
12.01.2010 00:00 -5,3 C 2,1 C -5,7 C -5,8 C -6,7 C 0,0 C 87 % 94 % 0 % 1017,9 hPa 0,0 l/m 0,0 km/h (0 Bft) NO 45 0 min 0,0 UV-I -7,1 C -6,7 C 0,0 km/h (0 Bft)
12.01.2010 00:10 -5,5 C 2,1 C -5,7 C -5,9 C -6,7 C 0,0 C 88 % 94 % 0 % 1017,9 hPa 0,0 l/m 0,0 km/h (0 Bft) NO 45 0 min 0,0 UV-I -7,2 C -6,7 C 0,0 km/h (0 Bft)
12.01.2010 00:15 -5,3 C 2,1 C -5,5 C -5,8 C -6,7 C 0,0 C 88 % 94 % 0 % 1017,9 hPa 0,0 l/m 0,0 km/h (0 Bft) NO 45 0 min 0,0 UV-I -7,0 C -6,7 C 0,0 km/h (0 Bft)
12.01.2010 00:20 -5,3 C 2,1 C -5,7 C -5,8 C -6,7 C 0,0 C 88 % 94 % 0 % 1017,9 hPa 0,0 l/m 0,0 km/h (0 Bft) NO 45 0 min 0,0 UV-I -7,0 C -6,7 C 0,0 km/h (0 Bft)
12.01.2010 00:25 -5,3 C 2,1 C -5,7 C -5,8 C -6,7 C 0,0 C 88 % 94 % 0 % 1017,9 hPa 0,0 l/m 0,0 km/h (0 Bft) NO 45 0 min 0,0 UV-I -7,0 C -6,7 C 0,0 km/h (0 Bft)
12.01.2010 00:30 -5,3 C 2,1 C -5,6 C -5,8 C -6,7 C 0,0 C 88 % 94 % 0 % 1017,9 hPa 0,0 l/m 0,0 km/h (0 Bft) NO 45 0 min 0,0 UV-I -7,0 C -6,7 C 0,0 km/h (0 Bft)
12.01.2010 00:35 -5,3 C 2,1 C -5,6 C -5,8 C -6,7 C 0,0 C 88 % 94 % 0 % 1018,1 hPa 0,0 l/m 0,0 km/h (0 Bft) NO 45 0 min 0,0 UV-I -7,0 C -6,7 C 0,0 km/h (0 Bft)
12.01.2010 00:40 -5,3 C 2,1 C -5,6 C -5,8 C -6,7 C 0,0 C 88 % 94 % 0 % 1018,1 hPa 0,0 l/m 0,0 km/h (0 Bft) NO 45 0 min 0,0 UV-I -7,0 C -6,7 C 0,0 km/h (0 Bft)
12.01.2010 00:45 -5,5 C 2,1 C -5,7 C -5,9 C -6,7 C 0,0 C 88 % 94 % 0 % 1018,1 hPa 0,0 l/m 0,0 km/h (0 Bft) NO 45 0 min 0,0 UV-I -7,2 C -6,7 C 0,0 km/h (0 Bft)
12.01.2010 00:50 -5,5 C 2,1 C -5,7 C -5,9 C -6,7 C 0,0 C 88 % 94 % 0 % 1018,1 hPa 0,0 l/m 0,0 km/h (0 Bft) NO 45 0 min 0,0 UV-I -7,2 C -6,7 C 0,0 km/h (0 Bft)
12.01.2010 00:55 -5,6 C 2,1 C -5,7 C -6,0 C -6,7 C 0,0 C 88 % 94 % 0 % 1018,1 hPa 0,0 l/m 0,0 km/h (0 Bft) NO 45 0 min 0,0 UV-I -7,3 C -6,7 C 0,0 km/h (0 Bft)
12.01.2010 01:00 -5,6 C 2,1 C -5,7 C -6,0 C -6,7 C 0,0 C 88 % 94 % 0 % 1018,1 hPa 0,0 l/m 0,0 km/h (0 Bft) NO 45 0 min 0,0 UV-I -7,3 C -6,7 C 0,0 km/h (0 Bft)
12.01.2010 01:05 -5,5 C 2,1 C -5,7 C -5,9 C -6,7 C 0,0 C 88 % 94 % 0 % 1018,1 hPa 0,0 l/m 0,0 km/h (0 Bft) NO 45 0 min 0,0 UV-I -7,2 C -6,7 C 0,0 km/h (0 Bft)
12.01.2010 01:10 -5,5 C 2,1 C -5,7 C -5,9 C -6,7 C 0,0 C 88 % 94 % 0 % 1018,1 hPa 0,0 l/m 0,0 km/h (0 Bft) NO 45 0 min 0,0 UV-I -7,2 C -6,7 C 0,0 km/h (0 Bft)
12.01.2010 01:15 -5,7 C 2,1 C -5,7 C -6,1 C -6,8 C 0,0 C 88 % 94 % 0 % 1018,1 hPa 0,0 l/m 0,0 km/h (0 Bft) NO 45 0 min 0,0 UV-I -7,4 C -6,8 C 0,0 km/h (0 Bft)
12.01.2010 01:20 -5,7 C 2,1 C -5,7 C -6,1 C -6,8 C 0,0 C 88 % 94 % 0 % 1018,1 hPa 0,0 l/m 0,0 km/h (0 Bft) NO 45 0 min 0,0 UV-I -7,4 C -6,8 C 0,0 km/h (0 Bft)
12.01.2010 01:25 -5,5 C 2,1 C -5,7 C -5,9 C -6,8 C 0,0 C 88 % 94 % 0 % 1018,1 hPa 0,0 l/m 0,0 km/h (0 Bft) NO 45 0 min 0,0 UV-I -7,2 C -6,8 C 0,0 km/h (0 Bft)
12.01.2010 01:30 -5,6 C 2,1 C -5,7 C -6,0 C -6,8 C 0,0 C 88 % 94 % 0 % 1018,1 hPa 0,0 l/m 0,0 km/h (0 Bft) NO 45 0 min 0,0 UV-I -7,3 C -6,8 C 0,0 km/h (0 Bft)
12.01.2010 01:35 -5,6 C 2,1 C -5,7 C -6,0 C -6,8 C 0,0 C 88 % 94 % 0 % 1018,2 hPa 0,0 l/m 0,0 km/h (0 Bft) NO 45 0 min 0,0 UV-I -7,3 C -6,8 C 0,0 km/h (0 Bft)
12.01.2010 01:40 -5,6 C 2,1 C -5,7 C -6,0 C -6,7 C 0,0 C 88 % 94 % 0 % 1018,2 hPa 0,0 l/m 0,0 km/h (0 Bft) NO 45 0 min 0,0 UV-I -7,3 C -6,7 C 0,0 km/h (0 Bft)
12.01.2010 01:45 -5,6 C 2,1 C -5,8 C -6,0 C -6,7 C 0,0 C 88 % 94 % 0 % 1018,2 hPa 0,0 l/m 0,0 km/h (0 Bft) NO 45 0 min 0,0 UV-I -7,3 C -6,7 C 0,0 km/h (0 Bft)
12.01.2010 01:50 -5,6 C 2,1 C -5,8 C -6,0 C -6,7 C 0,0 C 88 % 94 % 0 % 1018,2 hPa 0,0 l/m 0,0 km/h (0 Bft) NO 45 0 min 0,0 UV-I -7,3 C -6,7 C 0,0 km/h (0 Bft)
12.01.2010 01:55 -5,6 C 2,1 C -5,8 C -6,0 C -6,7 C 0,0 C 88 % 94 % 0 % 1018,2 hPa 0,0 l/m 0,0 km/h (0 Bft) NO 45 0 min 0,0 UV-I -7,3 C -6,7 C 0,0 km/h (0 Bft)
12.01.2010 02:00 -5,7 C 2,1 C -5,7 C -6,0 C -6,7 C 0,0 C 88 % 94 % 0 % 1018,2 hPa 0,0 l/m 0,0 km/h (0 Bft) NO 45 0 min 0,0 UV-I -7,4 C -6,7 C 0,0 km/h (0 Bft)
12.01.2010 02:05 -5,6 C 2,1 C -5,7 C -6,0 C -6,8 C 0,0 C 88 % 94 % 0 % 1018,2 hPa 0,0 l/m 0,0 km/h (0 Bft) NO 45 0 min 0,0 UV-I -7,3 C -6,8 C 0,0 km/h (0 Bft)
12.01.2010 02:10 -5,6 C 2,1 C -5,7 C -6,0 C -6,8 C 0,0 C 88 % 94 % 0 % 1018,2 hPa 0,0 l/m 0,0 km/h (0 Bft) NO 45 0 min 0,0 UV-I -7,3 C -6,8 C 0,0 km/h (0 Bft)
12.01.2010 02:15 -5,5 C 2,1 C -5,7 C -5,9 C -6,7 C 0,0 C 88 % 94 % 0 % 1018,1 hPa 0,0 l/m 0,0 km/h (0 Bft) NO 45 0 min 0,0 UV-I -7,2 C -6,7 C 0,0 km/h (0 Bft)
12.01.2010 02:20 -5,5 C 2,1 C -5,7 C -5,9 C -6,7 C 0,0 C 88 % 94 % 0 % 1018,1 hPa 0,0 l/m 0,0 km/h (0 Bft) NO 45 0 min 0,0 UV-I -7,2 C -6,7 C 0,0 km/h (0 Bft)
12.01.2010 02:25 -5,5 C 2,1 C -5,7 C -5,9 C -6,7 C 0,0 C 88 % 94 % 0 % 1018,1 hPa 0,0 l/m 0,0 km/h (0 Bft) NO 45 0 min 0,0 UV-I -7,2 C -6,7 C 0,0 km/h (0 Bft)
12.01.2010 02:30 -5,5 C 2,1 C -5,7 C -5,9 C -6,8 C 0,0 C 88 % 94 % 0 % 1018,1 hPa 0,0 l/m 0,0 km/h (0 Bft) NO 45 0 min 0,0 UV-I -7,2 C -6,8 C 0,0 km/h (0 Bft)
12.01.2010 02:35 -5,5 C 2,1 C -5,7 C -5,9 C -6,8 C 0,0 C 88 % 94 % 0 % 1018,5 hPa 0,0 l/m 0,0 km/h (0 Bft) NO 45 0 min 0,0 UV-I -7,2 C -6,8 C 0,0 km/h (0 Bft)
12.01.2010 02:40 -5,5 C 2,1 C -5,7 C -5,9 C -6,8 C 0,0 C 88 % 94 % 0 % 1018,5 hPa 0,0 l/m 0,0 km/h (0 Bft) NO 45 0 min 0,0 UV-I -7,2 C -6,8 C 0,0 km/h (0 Bft)
12.01.2010 02:45 -5,5 C 2,1 C -5,7 C -5,9 C -6,8 C 0,0 C 88 % 94 % 0 % 1018,5 hPa 0,0 l/m 0,0 km/h (0 Bft) NO 45 0 min 0,0 UV-I -7,2 C -6,8 C 0,0 km/h (0 Bft)
12.01.2010 02:50 -5,5 C 2,1 C -5,7 C -5,9 C -6,8 C 0,0 C 88 % 94 % 0 % 1018,5 hPa 0,0 l/m 0,0 km/h (0 Bft) NO 45 0 min 0,0 UV-I -7,2 C -6,8 C 0,0 km/h (0 Bft)
12.01.2010 02:55 -5,6 C 2,1 C -5,7 C -6,0 C -6,8 C 0,0 C 88 % 94 % 0 % 1018,2 hPa 0,0 l/m 0,0 km/h (0 Bft) NO 45 0 min 0,0 UV-I -7,3 C -6,8 C 0,0 km/h (0 Bft)
12.01.2010 03:00 -5,6 C 2,1 C -5,7 C -6,0 C -6,8 C 0,0 C 88 % 94 % 0 % 1018,2 hPa 0,0 l/m 0,0 km/h (0 Bft) NO 45 0 min 0,0 UV-I -7,3 C -6,8 C 0,0 km/h (0 Bft)
12.01.2010 03:10 -5,5 C 2,1 C -5,7 C -5,9 C -6,8 C 0,0 C 88 % 94 % 0 % 1018,2 hPa 0,0 l/m 0,0 km/h (0 Bft) NO 45 0 min 0,0 UV-I -7,2 C -6,8 C 0,0 km/h (0 Bft)
12.01.2010 03:15 -5,5 C 2,1 C -5,7 C -5,9 C -6,8 C 0,0 C 88 % 94 % 0 % 1018,1 hPa 0,0 l/m 0,0 km/h (0 Bft) NO 45 0 min 0,0 UV-I -7,2 C -6,8 C 0,0 km/h (0 Bft)
12.01.2010 03:20 -5,6 C 2,1 C -5,7 C -6,0 C -6,8 C 0,0 C 88 % 94 % 0 % 1018,1 hPa 0,0 l/m 0,0 km/h (0 Bft) NO 45 0 min 0,0 UV-I -7,3 C -6,8 C 0,0 km/h (0 Bft)
12.01.2010 03:25 -5,6 C 2,1 C -5,8 C -6,0 C -6,8 C 0,0 C 88 % 94 % 0 % 1018,1 hPa 0,0 l/m 0,0 km/h (0 Bft) NO 45 0 min 0,0 UV-I -7,3 C -6,8 C 0,0 km/h (0 Bft)
12.01.2010 03:30 -5,6 C 2,1 C -5,7 C -6,0 C -6,8 C 0,0 C 88 % 94 % 0 % 1018,1 hPa 0,0 l/m 0,0 km/h (0 Bft) NO 45 0 min 0,0 UV-I -7,3 C -6,8 C 0,0 km/h (0 Bft)
12.01.2010 03:35 -5,5 C 2,1 C -5,7 C -6,0 C -6,9 C 0,0 C 88 % 94 % 0 % 1018,7 hPa 0,0 l/m 0,0 km/h (0 Bft) NO 45 0 min 0,0 UV-I -7,2 C -6,9 C 0,0 km/h (0 Bft)
12.01.2010 03:40 -5,6 C 2,1 C -5,7 C -6,0 C -6,9 C 0,0 C 88 % 94 % 0 % 1018,7 hPa 0,0 l/m 0,0 km/h (0 Bft) NO 45 0 min 0,0 UV-I -7,3 C -6,9 C 0,0 km/h (0 Bft)
12.01.2010 03:45 -5,5 C 2,1 C -5,7 C -6,0 C -6,9 C 0,0 C 88 % 94 % 0 % 1018,7 hPa 0,0 l/m 0,0 km/h (0 Bft) NO 45 0 min 0,0 UV-I -7,2 C -6,9 C 0,0 km/h (0 Bft)
12.01.2010 03:50 -5,5 C 2,1 C -5,7 C -5,9 C -6,8 C 0,0 C 88 % 94 % 0 % 1018,7 hPa 0,0 l/m 0,0 km/h (0 Bft) NO 45 0 min 0,0 UV-I -7,2 C -6,8 C 0,0 km/h (0 Bft)
12.01.2010 03:55 -5,5 C 2,1 C -5,7 C -6,0 C -6,9 C 0,0 C 88 % 94 % 0 % 1018,4 hPa 0,0 l/m 0,0 km/h (0 Bft) NO 45 0 min 0,0 UV-I -7,2 C -6,9 C 0,0 km/h (0 Bft)
12.01.2010 04:00 -5,6 C 2,1 C -5,9 C -6,0 C -6,9 C 0,0 C 88 % 94 % 0 % 1018,4 hPa 0,0 l/m 0,0 km/h (0 Bft) NO 45 0 min 0,0 UV-I -7,3 C -6,9 C 0,0 km/h (0 Bft)
12.01.2010 04:10 -5,7 C 2,1 C -6,0 C -6,2 C -7,2 C 0,0 C 88 % 94 % 0 % 1018,4 hPa 0,0 l/m 0,0 km/h (0 Bft) NO 45 0 min 0,0 UV-I -7,4 C -7,2 C 0,0 km/h (0 Bft)
12.01.2010 04:15 -5,7 C 2,1 C -6,0 C -6,3 C -7,4 C 0,0 C 88 % 94 % 0 % 1018,3 hPa 0,0 l/m 0,0 km/h (0 Bft) NO 45 0 min 0,0 UV-I -7,4 C -7,4 C 0,0 km/h (0 Bft)
12.01.2010 04:20 -5,7 C 2,1 C -6,1 C -6,3 C -7,6 C 0,0 C 88 % 94 % 0 % 1018,3 hPa 0,0 l/m 0,0 km/h (0 Bft) NO 45 0 min 0,0 UV-I -7,4 C -7,6 C 0,0 km/h (0 Bft)
12.01.2010 04:25 -5,9 C 2,1 C -6,3 C -6,5 C -7,8 C 0,0 C 87 % 94 % 0 % 1018,3 hPa 0,0 l/m 0,0 km/h (0 Bft) NO 45 0 min 0,0 UV-I -7,7 C -7,8 C 0,0 km/h (0 Bft)
12.01.2010 04:30 -6,1 C 2,1 C -6,5 C -6,7 C -7,9 C 0,0 C 87 % 93 % 0 % 1018,3 hPa 0,0 l/m 0,0 km/h (0 Bft) NO 45 0 min 0,0 UV-I -7,9 C -7,9 C 0,0 km/h (0 Bft)
12.01.2010 04:35 -6,1 C 2,1 C -6,5 C -6,8 C -8,1 C 0,0 C 88 % 93 % 0 % 1018,9 hPa 0,0 l/m 0,0 km/h (0 Bft) NO 45 0 min 0,0 UV-I -7,8 C -8,1 C 0,0 km/h (0 Bft)
12.01.2010 04:40 -6,1 C 2,1 C -6,9 C -6,8 C -8,3 C 0,0 C 87 % 93 % 0 % 1018,9 hPa 0,0 l/m 0,0 km/h (0 Bft) NO 45 0 min 0,0 UV-I -7,9 C -8,3 C 0,0 km/h (0 Bft)
12.01.2010 04:45 -6,5 C 2,1 C -7,1 C -7,2 C -8,5 C 0,0 C 87 % 93 % 0 % 1018,9 hPa 0,0 l/m 0,0 km/h (0 Bft) NO 45 0 min 0,0 UV-I -8,3 C -8,5 C 0,0 km/h (0 Bft)
12.01.2010 04:50 -6,7 C 2,0 C -7,2 C -7,4 C -8,7 C 0,0 C 87 % 93 % 0 % 1018,9 hPa 0,0 l/m 0,0 km/h (0 Bft) NO 45 0 min 0,0 UV-I -8,5 C -8,7 C 0,0 km/h (0 Bft)
12.01.2010 04:55 -6,8 C 2,0 C -7,3 C -7,5 C -8,8 C 0,0 C 87 % 93 % 0 % 1018,2 hPa 0,0 l/m 0,0 km/h (0 Bft) NO 45 0 min 0,0 UV-I -8,6 C -8,8 C 0,0 km/h (0 Bft)
12.01.2010 05:00 -6,9 C 2,0 C -7,5 C -7,6 C -8,9 C 0,0 C 87 % 93 % 0 % 1018,2 hPa 0,0 l/m 0,0 km/h (0 Bft) NO 45 0 min 0,0 UV-I -8,7 C -8,9 C 0,0 km/h (0 Bft)
12.01.2010 05:10 -7,1 C 2,0 C -7,7 C -7,9 C -9,4 C 0,0 C 86 % 93 % 0 % 1018,2 hPa 0,0 l/m 0,0 km/h (0 Bft) NO 45 0 min 0,0 UV-I -9,0 C -9,4 C 0,0 km/h (0 Bft)
12.01.2010 05:15 -7,3 C 2,0 C -7,9 C -8,1 C -9,7 C 0,0 C 86 % 93 % 0 % 1018,5 hPa 0,0 l/m 0,0 km/h (0 Bft) NO 45 0 min 0,0 UV-I -9,2 C -9,7 C 0,0 km/h (0 Bft)
12.01.2010 05:20 -7,3 C 2,0 C -8,1 C -8,1 C -9,8 C 0,0 C 86 % 92 % 0 % 1018,5 hPa 0,0 l/m 0,0 km/h (0 Bft) NO 45 0 min 0,0 UV-I -9,2 C -9,8 C 0,0 km/h (0 Bft)
12.01.2010 05:25 -7,6 C 2,0 C -8,1 C -8,4 C -9,9 C 0,0 C 86 % 92 % 0 % 1018,5 hPa 0,0 l/m 0,0 km/h (0 Bft) NO 45 0 min 0,0 UV-I -9,5 C -9,9 C 0,0 km/h (0 Bft)
12.01.2010 05:30 -7,6 C 2,0 C -8,1 C -8,4 C -9,9 C 0,0 C 86 % 92 % 0 % 1018,5 hPa 0,0 l/m 0,0 km/h (0 Bft) NO 45 0 min 0,0 UV-I -9,5 C -9,9 C 0,0 km/h (0 Bft)
12.01.2010 05:35 -7,7 C 2,0 C -8,4 C -8,5 C -10,0 C 0,0 C 86 % 92 % 0 % 1018,5 hPa 0,0 l/m 0,0 km/h (0 Bft) NO 45 0 min 0,0 UV-I -9,6 C -10,0 C 0,0 km/h (0 Bft)
12.01.2010 05:40 -7,7 C 2,0 C -8,5 C -8,5 C -10,1 C 0,0 C 86 % 92 % 0 % 1018,5 hPa 0,0 l/m 0,0 km/h (0 Bft) NO 45 0 min 0,0 UV-I -9,6 C -10,1 C 0,0 km/h (0 Bft)
12.01.2010 05:45 -7,9 C 2,0 C -8,7 C -8,8 C -10,5 C 0,0 C 86 % 92 % 0 % 1018,5 hPa 0,0 l/m 0,0 km/h (0 Bft) NO 45 0 min 0,0 UV-I -9,8 C -10,5 C 0,0 km/h (0 Bft)
12.01.2010 05:50 -8,1 C 2,0 C -8,9 C -8,9 C -10,6 C 0,0 C 85 % 92 % 0 % 1018,5 hPa 0,0 l/m 0,0 km/h (0 Bft) NO 45 0 min 0,0 UV-I -10,2 C -10,6 C 0,0 km/h (0 Bft)
12.01.2010 05:55 -8,1 C 2,0 C -9,1 C -9,1 C -11,0 C 0,0 C 85 % 92 % 0 % 1018,5 hPa 0,0 l/m 0,0 km/h (0 Bft) NO 45 0 min 0,0 UV-I -10,2 C -11,0 C 0,0 km/h (0 Bft)
12.01.2010 06:00 -8,4 C 2,0 C -9,3 C -9,3 C -11,1 C 0,0 C 84 % 92 % 0 % 1018,5 hPa 0,0 l/m 0,0 km/h (0 Bft) NO 45 0 min 0,0 UV-I -10,6 C -11,1 C 0,0 km/h (0 Bft)
12.01.2010 06:10 -8,5 C 2,0 C -9,6 C -9,4 C -11,2 C 0,0 C 85 % 91 % 0 % 1018,5 hPa 0,0 l/m 0,0 km/h (0 Bft) NO 45 0 min 0,0 UV-I -10,6 C -11,2 C 0,0 km/h (0 Bft)
12.01.2010 06:15 -8,7 C 1,9 C -9,7 C -9,6 C -11,3 C 0,0 C 85 % 91 % 0 % 1018,5 hPa 0,0 l/m 0,0 km/h (0 Bft) NO 45 0 min 0,0 UV-I -10,8 C -11,3 C 0,0 km/h (0 Bft)
12.01.2010 06:20 -8,5 C 1,9 C -9,9 C -9,5 C -11,6 C 0,0 C 85 % 92 % 0 % 1018,5 hPa 0,0 l/m 0,0 km/h (0 Bft) NO 45 0 min 0,0 UV-I -10,6 C -11,6 C 0,0 km/h (0 Bft)
12.01.2010 06:25 -8,5 C 1,9 C -9,9 C -9,6 C -11,8 C 0,0 C 85 % 92 % 0 % 1018,5 hPa 0,0 l/m 0,0 km/h (0 Bft) NO 45 0 min 0,0 UV-I -10,6 C -11,8 C 0,0 km/h (0 Bft)
12.01.2010 06:30 -8,8 C 1,9 C -10,1 C -9,9 C -12,0 C 0,0 C 84 % 91 % 0 % 1018,5 hPa 0,0 l/m 0,0 km/h (0 Bft) NO 45 0 min 0,0 UV-I -11,0 C -12,0 C 0,0 km/h (0 Bft)
12.01.2010 06:35 -9,2 C 1,9 C -10,2 C -10,2 C -12,2 C 0,0 C 84 % 91 % 0 % 1018,1 hPa 0,0 l/m 0,0 km/h (0 Bft) NO 45 0 min 0,0 UV-I -11,4 C -12,2 C 0,0 km/h (0 Bft)
12.01.2010 06:40 -9,3 C 1,9 C -10,3 C -10,3 C -12,2 C 0,0 C 84 % 91 % 0 % 1018,1 hPa 0,0 l/m 0,0 km/h (0 Bft) NO 45 0 min 0,0 UV-I -11,5 C -12,2 C 0,0 km/h (0 Bft)
12.01.2010 06:45 -9,3 C 1,9 C -10,3 C -10,3 C -12,3 C 0,0 C 85 % 92 % 0 % 1018,1 hPa 0,0 l/m 0,0 km/h (0 Bft) NO 45 0 min 0,0 UV-I -11,3 C -12,3 C 0,0 km/h (0 Bft)
12.01.2010 06:50 -9,3 C 1,9 C -10,5 C -10,3 C -12,4 C 0,0 C 84 % 91 % 0 % 1018,1 hPa 0,0 l/m 0,0 km/h (0 Bft) NO 45 0 min 0,0 UV-I -11,5 C -12,4 C 0,0 km/h (0 Bft)
12.01.2010 06:55 -9,5 C 1,9 C -10,5 C -10,4 C -12,3 C 0,0 C 84 % 91 % 0 % 1017,9 hPa 0,0 l/m 0,0 km/h (0 Bft) NO 45 0 min 0,0 UV-I -11,7 C -12,3 C 0,0 km/h (0 Bft)
12.01.2010 07:00 -9,5 C 1,9 C -10,5 C -10,4 C -12,3 C 0,0 C 84 % 91 % 0 % 1017,9 hPa 0,0 l/m 0,0 km/h (0 Bft) NO 45 0 min 0,0 UV-I -11,7 C -12,3 C 0,0 km/h (0 Bft)
12.01.2010 07:10 -9,7 C 1,9 C -10,8 C -10,7 C -12,6 C 0,0 C 84 % 91 % 0 % 1017,9 hPa 0,0 l/m 0,0 km/h (0 Bft) NO 45 0 min 0,0 UV-I -11,9 C -12,6 C 0,0 km/h (0 Bft)
12.01.2010 07:15 -9,8 C 1,8 C -10,9 C -10,8 C -12,8 C 0,0 C 84 % 91 % 0 % 1018,7 hPa 0,0 l/m 0,0 km/h (0 Bft) NO 45 0 min 0,0 UV-I -12,0 C -12,8 C 0,0 km/h (0 Bft)
12.01.2010 07:20 -9,9 C 1,9 C -10,9 C -10,9 C -12,8 C 0,0 C 84 % 91 % 0 % 1018,7 hPa 0,0 l/m 0,0 km/h (0 Bft) NO 45 0 min 0,0 UV-I -12,1 C -12,8 C 0,0 km/h (0 Bft)
12.01.2010 07:25 -9,9 C 1,9 C -11,0 C -11,0 C -13,1 C 0,0 C 84 % 91 % 0 % 1018,7 hPa 0,0 l/m 0,0 km/h (0 Bft) NO 45 0 min 0,0 UV-I -12,1 C -13,1 C 0,0 km/h (0 Bft)
12.01.2010 07:30 -10,0 C 1,9 C -11,1 C -11,1 C -13,4 C 0,0 C 84 % 91 % 0 % 1018,7 hPa 0,0 l/m 0,0 km/h (0 Bft) NO 45 0 min 0,0 UV-I -12,2 C -13,4 C 0,0 km/h (0 Bft)
12.01.2010 07:35 -10,1 C 1,9 C -11,1 C -11,3 C -13,6 C 0,0 C 83 % 91 % 0 % 1019,2 hPa 0,0 l/m 0,0 km/h (0 Bft) NO 45 0 min 0,0 UV-I -12,4 C -13,6 C 0,0 km/h (0 Bft)
12.01.2010 07:40 -10,1 C 1,8 C -11,3 C -11,3 C -13,6 C 0,0 C 83 % 91 % 0 % 1019,2 hPa 0,0 l/m 0,0 km/h (0 Bft) NO 45 0 min 0,0 UV-I -12,4 C -13,6 C 0,0 km/h (0 Bft)
12.01.2010 07:45 -10,1 C 1,9 C -11,3 C -11,3 C -13,7 C 0,0 C 83 % 91 % 0 % 1019,2 hPa 0,0 l/m 0,0 km/h (0 Bft) NO 45 0 min 0,0 UV-I -12,4 C -13,7 C 0,0 km/h (0 Bft)
12.01.2010 07:50 -10,1 C 1,9 C -11,3 C -11,3 C -13,8 C 0,0 C 83 % 91 % 0 % 1019,2 hPa 0,0 l/m 0,0 km/h (0 Bft) NO 45 0 min 0,0 UV-I -12,4 C -13,8 C 0,0 km/h (0 Bft)
12.01.2010 07:55 -10,1 C 1,9 C -11,5 C -11,4 C -14,0 C 0,0 C 83 % 91 % 0 % 1018,8 hPa 0,0 l/m 0,0 km/h (0 Bft) NO 45 0 min 0,0 UV-I -12,4 C -14,0 C 0,0 km/h (0 Bft)
12.01.2010 08:00 -10,1 C 1,9 C -11,6 C -11,4 C -14,1 C 0,0 C 83 % 91 % 0 % 1018,8 hPa 0,0 l/m 0,0 km/h (0 Bft) NO 45 0 min 0,0 UV-I -12,4 C -14,1 C 0,0 km/h (0 Bft)
12.01.2010 08:10 -10,3 C 1,9 C -11,7 C -11,6 C -14,2 C 0,0 C 82 % 91 % 0 % 1018,8 hPa 0,0 l/m 0,0 km/h (0 Bft) NO 45 0 min 0,0 UV-I -12,8 C -14,2 C 0,0 km/h (0 Bft)
12.01.2010 08:15 -10,5 C 1,9 C -11,8 C -11,8 C -14,3 C 0,0 C 82 % 91 % 0 % 1018,8 hPa 0,0 l/m 0,0 km/h (0 Bft) NO 45 0 min 0,0 UV-I -13,0 C -14,3 C 0,0 km/h (0 Bft)
12.01.2010 08:20 -10,6 C 1,9 C -12,0 C -11,9 C -14,5 C 0,0 C 82 % 90 % 0 % 1018,8 hPa 0,0 l/m 0,0 km/h (0 Bft) NO 45 0 min 0,0 UV-I -13,1 C -14,5 C 0,0 km/h (0 Bft)
12.01.2010 08:25 -10,5 C 1,9 C -11,9 C -11,9 C -14,6 C 0,0 C 82 % 91 % 0 % 1018,8 hPa 0,0 l/m 0,0 km/h (0 Bft) NO 45 0 min 0,0 UV-I -13,0 C -14,6 C 0,0 km/h (0 Bft)
12.01.2010 08:30 -10,7 C 1,9 C -12,1 C -12,0 C -14,7 C 0,0 C 82 % 91 % 0 % 1018,8 hPa 0,0 l/m 0,0 km/h (0 Bft) NO 45 0 min 0,0 UV-I -13,2 C -14,7 C 0,0 km/h (0 Bft)
12.01.2010 08:35 -10,7 C 1,9 C -12,1 C -12,0 C -14,7 C 0,0 C 82 % 91 % 0 % 1018,8 hPa 0,0 l/m 0,0 km/h (0 Bft) NO 45 0 min 0,0 UV-I -13,2 C -14,7 C 0,0 km/h (0 Bft)
12.01.2010 08:40 -10,5 C 1,9 C -12,1 C -11,9 C -14,7 C 0,0 C 82 % 91 % 0 % 1018,8 hPa 0,0 l/m 0,0 km/h (0 Bft) NO 45 0 min 0,0 UV-I -13,0 C -14,7 C 0,0 km/h (0 Bft)
12.01.2010 08:45 -10,5 C 1,9 C -12,1 C -11,8 C -14,5 C 0,0 C 82 % 91 % 0 % 1018,8 hPa 0,0 l/m 0,0 km/h (0 Bft) NO 45 0 min 0,0 UV-I -13,0 C -14,5 C 0,0 km/h (0 Bft)
12.01.2010 08:50 -10,5 C 1,9 C -12,1 C -11,7 C -14,2 C 0,0 C 82 % 91 % 0 % 1018,8 hPa 0,0 l/m 0,0 km/h (0 Bft) NO 45 0 min 0,0 UV-I -13,0 C -14,2 C 0,0 km/h (0 Bft)
12.01.2010 08:55 -10,5 C 1,9 C -12,0 C -11,7 C -14,1 C 0,0 C 82 % 91 % 0 % 1019,3 hPa 0,0 l/m 0,0 km/h (0 Bft) NO 45 0 min 0,0 UV-I -13,0 C -14,1 C 0,0 km/h (0 Bft)
12.01.2010 09:00 -10,7 C 1,9 C -12,1 C -11,7 C -13,8 C 0,0 C 81 % 91 % 0 % 1019,3 hPa 0,0 l/m 0,0 km/h (0 Bft) NO 45 0 min 0,0 UV-I -13,3 C -13,8 C 0,0 km/h (0 Bft)
12.01.2010 09:10 -10,5 C 1,9 C -12,2 C -11,6 C -13,7 C 0,0 C 82 % 91 % 0 % 1019,3 hPa 0,0 l/m 0,0 km/h (0 Bft) NO 45 0 min 0,0 UV-I -13,0 C -13,7 C 0,0 km/h (0 Bft)
12.01.2010 09:15 -10,5 C 1,9 C -12,1 C -11,5 C -13,5 C 0,0 C 82 % 91 % 0 % 1019,3 hPa 0,0 l/m 0,0 km/h (0 Bft) NO 45 0 min 0,0 UV-I -13,0 C -13,5 C 0,0 km/h (0 Bft)
12.01.2010 09:20 -10,3 C 1,9 C -12,0 C -11,4 C -13,5 C 0,0 C 82 % 91 % 0 % 1019,3 hPa 0,0 l/m 0,0 km/h (0 Bft) NO 45 0 min 0,0 UV-I -12,8 C -13,5 C 0,0 km/h (0 Bft)
12.01.2010 09:25 -10,3 C 1,9 C -12,0 C -11,3 C -13,2 C 0,0 C 82 % 91 % 0 % 1019,3 hPa 0,0 l/m 0,0 km/h (0 Bft) NO 45 0 min 0,0 UV-I -12,8 C -13,2 C 0,0 km/h (0 Bft)
12.01.2010 09:30 -10,1 C 1,9 C -11,9 C -11,1 C -13,2 C 0,0 C 82 % 91 % 0 % 1019,3 hPa 0,0 l/m 0,0 km/h (0 Bft) NO 45 0 min 0,0 UV-I -12,6 C -13,2 C 0,0 km/h (0 Bft)
12.01.2010 09:35 -10,1 C 1,9 C -11,9 C -11,0 C -12,9 C 0,0 C 82 % 91 % 0 % 1018,8 hPa 0,0 l/m 0,0 km/h (0 Bft) NO 45 0 min 0,0 UV-I -12,6 C -12,9 C 0,0 km/h (0 Bft)
12.01.2010 09:40 -9,9 C 1,8 C -11,7 C -10,8 C -12,7 C 0,0 C 82 % 91 % 0 % 1018,8 hPa 0,0 l/m 0,0 km/h (0 Bft) NO 45 0 min 0,0 UV-I -12,4 C -12,7 C 0,0 km/h (0 Bft)
12.01.2010 09:45 -10,1 C 1,8 C -11,7 C -10,9 C -12,4 C 0,0 C 81 % 91 % 0 % 1018,8 hPa 0,0 l/m 0,0 km/h (0 Bft) NO 45 0 min 0,0 UV-I -12,7 C -12,4 C 0,0 km/h (0 Bft)
12.01.2010 09:50 -10,1 C 1,8 C -11,6 C -10,9 C -12,4 C 0,0 C 81 % 91 % 0 % 1018,8 hPa 0,0 l/m 0,0 km/h (0 Bft) NO 45 0 min 0,0 UV-I -12,7 C -12,4 C 0,0 km/h (0 Bft)
12.01.2010 09:55 -10,1 C 1,8 C -11,5 C -10,8 C -12,3 C 0,0 C 82 % 91 % 0 % 1019,2 hPa 0,0 l/m 0,0 km/h (0 Bft) NO 45 0 min 0,0 UV-I -12,6 C -12,3 C 0,0 km/h (0 Bft)
12.01.2010 10:00 -10,0 C 1,8 C -11,3 C -10,7 C -12,0 C 0,0 C 82 % 92 % 0 % 1019,2 hPa 0,0 l/m 0,0 km/h (0 Bft) NO 45 0 min 0,0 UV-I -12,5 C -12,0 C 0,0 km/h (0 Bft)
12.01.2010 10:10 -9,7 C 1,8 C -11,3 C -10,2 C -11,3 C 0,0 C 83 % 92 % 0 % 1019,2 hPa 0,0 l/m 0,0 km/h (0 Bft) NO 45 0 min 0,0 UV-I -12,0 C -11,3 C 0,0 km/h (0 Bft)
12.01.2010 10:15 -9,6 C 1,9 C -10,9 C -10,1 C -11,2 C 0,0 C 83 % 92 % 0 % 1019,2 hPa 0,0 l/m 0,0 km/h (0 Bft) NO 45 0 min 0,0 UV-I -11,9 C -11,2 C 0,0 km/h (0 Bft)
12.01.2010 10:20 -9,6 C 1,9 C -10,9 C -10,1 C -11,1 C 0,0 C 83 % 92 % 0 % 1019,2 hPa 0,0 l/m 0,0 km/h (0 Bft) NO 45 0 min 0,0 UV-I -11,9 C -11,1 C 0,0 km/h (0 Bft)
12.01.2010 10:25 -9,4 C 1,9 C -10,7 C -9,8 C -10,7 C 0,0 C 84 % 92 % 0 % 1019,2 hPa 0,0 l/m 0,2 km/h (0 Bft) NO 45 0 min 0,0 UV-I -11,6 C -10,7 C 1,8 km/h (1 Bft)
12.01.2010 10:30 -9,1 C 1,9 C -10,5 C -9,6 C -10,6 C 0,0 C 84 % 92 % 0 % 1019,2 hPa 0,0 l/m 0,2 km/h (0 Bft) NO 45 0 min 0,0 UV-I -11,3 C -10,6 C 0,0 km/h (0 Bft)
12.01.2010 10:35 -9,1 C 1,9 C -10,5 C -9,3 C -9,7 C 0,0 C 84 % 92 % 0 % 1019,1 hPa 0,0 l/m 0,2 km/h (0 Bft) NO 45 0 min 0,0 UV-I -11,3 C -9,7 C 0,0 km/h (0 Bft)
12.01.2010 10:40 -8,9 C 1,9 C -10,5 C -9,1 C -9,5 C 0,0 C 84 % 92 % 0 % 1019,1 hPa 0,0 l/m 0,0 km/h (0 Bft) NO 45 0 min 0,0 UV-I -11,1 C -9,5 C 0,0 km/h (0 Bft)
12.01.2010 10:45 -8,7 C 1,9 C -10,3 C -8,9 C -9,2 C 0,0 C 84 % 92 % 0 % 1019,1 hPa 0,0 l/m 0,0 km/h (0 Bft) NO 45 0 min 0,0 UV-I -10,9 C -9,2 C 0,0 km/h (0 Bft)
12.01.2010 10:50 -8,6 C 1,9 C -10,1 C -8,7 C -9,0 C 0,0 C 83 % 92 % 0 % 1019,1 hPa 0,0 l/m 0,0 km/h (0 Bft) NO 45 0 min 0,0 UV-I -11,0 C -9,0 C 0,0 km/h (0 Bft)
12.01.2010 10:55 -8,3 C 1,9 C -9,9 C -8,4 C -8,6 C 0,0 C 84 % 92 % 0 % 1018,9 hPa 0,0 l/m 0,0 km/h (0 Bft) NO 45 0 min 0,0 UV-I -10,5 C -8,6 C 0,0 km/h (0 Bft)
12.01.2010 11:00 -8,1 C 1,9 C -9,7 C -8,2 C -8,5 C 0,0 C 84 % 92 % 0 % 1018,9 hPa 0,0 l/m 0,0 km/h (0 Bft) NO 45 0 min 0,0 UV-I -10,3 C -8,5 C 0,0 km/h (0 Bft)
12.01.2010 11:10 -7,7 C 1,9 C -9,3 C -7,7 C -7,8 C 0,0 C 84 % 93 % 0 % 1018,9 hPa 0,0 l/m 0,2 km/h (0 Bft) NO 45 0 min 0,0 UV-I -9,9 C -7,8 C 2,9 km/h (1 Bft)
12.01.2010 11:15 -7,6 C 2,0 C -9,2 C -7,2 C -7,2 C 0,4 C 84 % 93 % 11 % 1019,2 hPa 0,0 l/m 0,3 km/h (0 Bft) NO 45 0 min 0,0 UV-I -9,8 C -7,2 C 3,7 km/h (1 Bft)
12.01.2010 11:20 -7,5 C 1,9 C -9,0 C -7,1 C -7,1 C 0,4 C 84 % 93 % 11 % 1019,2 hPa 0,0 l/m 0,5 km/h (0 Bft) NO 45 0 min 0,0 UV-I -9,7 C -7,1 C 0,0 km/h (0 Bft)
12.01.2010 11:25 -7,3 C 1,9 C -8,5 C -6,6 C -6,6 C 0,7 C 83 % 93 % 18 % 1019,2 hPa 0,0 l/m 0,3 km/h (0 Bft) NO 45 0 min 0,0 UV-I -9,7 C -6,6 C 0,0 km/h (0 Bft)
12.01.2010 11:30 -7,1 C 1,9 C -8,5 C -5,9 C -5,9 C 1,2 C 83 % 93 % 32 % 1019,2 hPa 0,0 l/m 0,2 km/h (0 Bft) NO 45 0 min 0,0 UV-I -9,5 C -5,9 C 0,0 km/h (0 Bft)
12.01.2010 11:35 -6,9 C 1,9 C -8,4 C -5,3 C -5,3 C 1,6 C 83 % 93 % 42 % 1018,6 hPa 0,0 l/m 0,2 km/h (0 Bft) NO 45 0 min 0,0 UV-I -9,3 C -5,3 C 0,0 km/h (0 Bft)
12.01.2010 11:40 -6,9 C 1,9 C -8,1 C -5,4 C -5,4 C 1,5 C 83 % 93 % 39 % 1018,6 hPa 0,0 l/m 0,2 km/h (0 Bft) NO 45 0 min 0,0 UV-I -9,3 C -5,4 C 0,0 km/h (0 Bft)
12.01.2010 11:45 -6,7 C 1,9 C -7,9 C -5,8 C -5,8 C 0,9 C 83 % 93 % 24 % 1018,6 hPa 0,0 l/m 0,2 km/h (0 Bft) NO 45 0 min 0,0 UV-I -9,1 C -5,8 C 0,0 km/h (0 Bft)
12.01.2010 11:50 -6,5 C 1,9 C -7,7 C -5,4 C -5,4 C 1,1 C 83 % 93 % 29 % 1018,6 hPa 0,0 l/m 0,2 km/h (0 Bft) NO 45 0 min 0,0 UV-I -8,9 C -5,4 C 0,0 km/h (0 Bft)
12.01.2010 11:55 -6,4 C 1,7 C -7,7 C -4,6 C -4,6 C 1,8 C 82 % 93 % 47 % 1018,8 hPa 0,0 l/m 0,0 km/h (0 Bft) NO 45 0 min 0,0 UV-I -9,0 C -4,6 C 0,0 km/h (0 Bft)
12.01.2010 12:00 -6,1 C 1,9 C -7,5 C -4,6 C -4,6 C 1,5 C 82 % 94 % 39 % 1018,8 hPa 0,0 l/m 0,0 km/h (0 Bft) NO 45 0 min 0,0 UV-I -8,7 C -4,6 C 0,0 km/h (0 Bft)
12.01.2010 12:05 -6,2 C 1,9 C -7,3 C -4,5 C -4,5 C 1,7 C 82 % 94 % 45 % 1018,8 hPa 0,0 l/m 0,3 km/h (0 Bft) NO 45 0 min 0,0 UV-I -8,8 C -4,5 C 1,9 km/h (1 Bft)
12.01.2010 12:10 -6,1 C 1,9 C -7,3 C -4,6 C -4,6 C 1,5 C 82 % 94 % 39 % 1018,8 hPa 0,0 l/m 0,5 km/h (0 Bft) NO 45 0 min 0,0 UV-I -8,7 C -4,6 C 0,0 km/h (0 Bft)
12.01.2010 12:15 -5,7 C 1,7 C -7,2 C -4,7 C -4,7 C 1,0 C 82 % 94 % 26 % 1018,8 hPa 0,0 l/m 0,6 km/h (0 Bft) NO 45 0 min 0,0 UV-I -8,3 C -4,7 C 1,6 km/h (1 Bft)
12.01.2010 12:20 -5,7 C 1,7 C -6,9 C -4,9 C -4,9 C 0,8 C 82 % 93 % 21 % 1018,8 hPa 0,0 l/m 0,8 km/h (0 Bft) NO 45 0 min 0,0 UV-I -8,3 C -4,9 C 2,1 km/h (1 Bft)
12.01.2010 12:25 -5,6 C 1,7 C -6,8 C -4,6 C -4,6 C 1,0 C 81 % 94 % 26 % 1018,8 hPa 0,0 l/m 0,6 km/h (0 Bft) NO 45 0 min 0,0 UV-I -8,3 C -4,6 C 0,0 km/h (0 Bft)
12.01.2010 12:30 -5,5 C 1,7 C -6,7 C -4,0 C -4,0 C 1,5 C 81 % 94 % 39 % 1018,8 hPa 0,0 l/m 0,3 km/h (0 Bft) NO 45 0 min 0,0 UV-I -8,2 C -4,0 C 0,0 km/h (0 Bft)
12.01.2010 12:35 -5,3 C 1,7 C -6,5 C -3,5 C -3,5 C 1,8 C 81 % 94 % 47 % 1018,8 hPa 0,0 l/m 0,2 km/h (0 Bft) NO 45 0 min 0,0 UV-I -8,0 C -3,5 C 0,0 km/h (0 Bft)
12.01.2010 12:40 -5,3 C 1,7 C -6,5 C -3,5 C -3,5 C 1,8 C 81 % 94 % 47 % 1018,8 hPa 0,0 l/m 0,0 km/h (0 Bft) NO 45 0 min 0,0 UV-I -8,0 C -3,5 C 0,0 km/h (0 Bft)
12.01.2010 12:45 -5,1 C 1,7 C -6,4 C -3,6 C -3,6 C 1,5 C 81 % 94 % 39 % 1018,8 hPa 0,0 l/m 0,0 km/h (0 Bft) NO 45 0 min 0,0 UV-I -7,8 C -3,6 C 0,0 km/h (0 Bft)
12.01.2010 12:50 -4,9 C 1,7 C -6,4 C -3,4 C -3,4 C 1,5 C 81 % 94 % 39 % 1018,8 hPa 0,0 l/m 0,0 km/h (0 Bft) NO 45 0 min 0,0 UV-I -7,6 C -3,4 C 0,0 km/h (0 Bft)
12.01.2010 12:55 -4,9 C 1,7 C -6,1 C -3,2 C -3,2 C 1,7 C 81 % 94 % 45 % 1018,8 hPa 0,0 l/m 0,0 km/h (0 Bft) NO 45 0 min 0,0 UV-I -7,6 C -3,2 C 0,0 km/h (0 Bft)
12.01.2010 12:57 -4,8 C 1,7 C -6,0 C -2,9 C -2,9 C 1,9 C 81 % 94 % 50 % 1018,8 hPa 0,0 l/m 0,0 km/h (0 Bft) NO 45 0 min 0,0 UV-I -7,5 C -2,9 C 2,1 km/h (1 Bft)
12.01.2010 13:02 -4,8 C 1,7 C -6,0 C -2,9 C -2,9 C 1,9 C 81 % 94 % 50 % 1018,8 hPa 0,0 l/m 0,0 km/h (0 Bft) NO 45 0 min 0,0 UV-I -7,5 C -2,9 C 2,1 km/h (1 Bft)
12.01.2010 13:05 -4,5 C 1,7 C -5,5 C -3,1 C -3,1 C 1,4 C 81 % 94 % 37 % 1018,8 hPa 0,0 l/m 0,3 km/h (0 Bft) NO 45 0 min 0,0 UV-I -7,3 C -3,1 C 0,0 km/h (0 Bft)
12.01.2010 13:10 -4,5 C 1,6 C -5,3 C -3,2 C -3,2 C 1,3 C 81 % 94 % 34 % 1018,8 hPa 0,0 l/m 0,8 km/h (0 Bft) NO 45 0 min 0,0 UV-I -7,3 C -3,2 C 2,3 km/h (1 Bft)
12.01.2010 13:15 -4,3 C 1,6 C -5,3 C -3,4 C -3,4 C 0,9 C 80 % 94 % 24 % 1018,8 hPa 0,0 l/m 0,6 km/h (0 Bft) NO 45 0 min 0,0 UV-I -7,2 C -3,4 C 0,0 km/h (0 Bft)
12.01.2010 13:20 -4,4 C 1,6 C -5,2 C -3,5 C -3,5 C 0,9 C 80 % 94 % 24 % 1018,8 hPa 0,0 l/m 0,3 km/h (0 Bft) NO 45 0 min 0,0 UV-I -7,3 C -3,5 C 1,6 km/h (1 Bft)
12.01.2010 13:25 -4,3 C 1,6 C -4,9 C -3,4 C -3,4 C 0,9 C 80 % 94 % 24 % 1018,8 hPa 0,0 l/m 1,6 km/h (1 Bft) NO 45 0 min 0,0 UV-I -7,2 C -3,4 C 3,1 km/h (1 Bft)
12.01.2010 13:30 -4,3 C 1,7 C -4,9 C -3,8 C -3,8 C 0,5 C 80 % 94 % 13 % 1018,8 hPa 0,0 l/m 2,6 km/h (1 Bft) NO 45 0 min 0,0 UV-I -7,2 C -3,8 C 3,1 km/h (1 Bft)
12.01.2010 13:35 -4,3 C 1,7 C -4,9 C -3,7 C -3,7 C 0,6 C 79 % 94 % 16 % 1018,8 hPa 0,0 l/m 2,6 km/h (1 Bft) NO 45 0 min 0,0 UV-I -7,4 C -3,7 C 2,9 km/h (1 Bft)
12.01.2010 13:40 -4,1 C 1,7 C -5,1 C -3,7 C -3,7 C 0,4 C 78 % 93 % 11 % 1018,8 hPa 0,0 l/m 2,4 km/h (1 Bft) NO 45 0 min 0,0 UV-I -7,4 C -3,7 C 2,4 km/h (1 Bft)
12.01.2010 13:45 -4,3 C 1,7 C -4,9 C -3,3 C -3,3 C 1,0 C 78 % 93 % 26 % 1018,8 hPa 0,0 l/m 2,1 km/h (1 Bft) NO 45 0 min 0,0 UV-I -7,5 C -3,3 C 2,9 km/h (1 Bft)
12.01.2010 13:50 -4,3 C 1,7 C -5,1 C -3,4 C -3,4 C 0,9 C 79 % 93 % 24 % 1018,8 hPa 0,0 l/m 1,8 km/h (1 Bft) NO 45 0 min 0,0 UV-I -7,4 C -3,4 C 3,4 km/h (1 Bft)
12.01.2010 13:55 -4,3 C 1,7 C -5,0 C -3,6 C -3,6 C 0,7 C 79 % 93 % 18 % 1018,8 hPa 0,0 l/m 1,8 km/h (1 Bft) NO 45 0 min 0,0 UV-I -7,4 C -3,6 C 0,0 km/h (0 Bft)
12.01.2010 13:57 -4,3 C 1,7 C -4,9 C -3,4 C -3,4 C 0,9 C 79 % 93 % 24 % 1018,8 hPa 0,0 l/m 1,6 km/h (1 Bft) NO 45 0 min 0,0 UV-I -7,4 C -3,4 C 0,0 km/h (0 Bft)
12.01.2010 14:02 -4,3 C 1,6 C -5,0 C -3,2 C -3,2 C 1,1 C 79 % 93 % 29 % 1018,8 hPa 0,0 l/m 1,4 km/h (1 Bft) NO 45 0 min 0,0 UV-I -7,4 C -3,2 C 2,7 km/h (1 Bft)
12.01.2010 14:07 -4,3 C 1,6 C -4,9 C -3,0 C -3,0 C 1,3 C 80 % 93 % 34 % 1018,8 hPa 0,0 l/m 1,6 km/h (1 Bft) NO 45 0 min 0,0 UV-I -7,2 C -3,0 C 1,6 km/h (1 Bft)
12.01.2010 14:12 -4,3 C 1,7 C -4,9 C -3,1 C -3,1 C 1,2 C 80 % 93 % 32 % 1018,8 hPa 0,0 l/m 1,1 km/h (1 Bft) NO 45 0 min 0,0 UV-I -7,2 C -3,1 C 0,0 km/h (0 Bft)
12.01.2010 14:19 -4,1 C 1,6 C -4,9 C -2,9 C -2,9 C 1,2 C 80 % 93 % 32 % 1018,8 hPa 0,0 l/m 0,5 km/h (0 Bft) NO 45 0 min 0,0 UV-I -7,0 C -2,9 C 0,0 km/h (0 Bft)
12.01.2010 14:25 -4,2 C 1,7 C -4,8 C -2,8 C -2,8 C 1,4 C 80 % 93 % 37 % 1018,8 hPa 0,0 l/m 0,0 km/h (0 Bft) NO 45 0 min 0,0 UV-I -7,1 C -2,8 C 0,0 km/h (0 Bft)
12.01.2010 14:30 -4,1 C 1,6 C -4,8 C -2,6 C -2,6 C 1,5 C 80 % 93 % 39 % 1018,8 hPa 0,0 l/m 0,0 km/h (0 Bft) NO 45 0 min 0,0 UV-I -7,0 C -2,6 C 0,0 km/h (0 Bft)
12.01.2010 14:35 -4,1 C 1,6 C -4,7 C -2,2 C -2,2 C 1,9 C 80 % 93 % 50 % 1016,7 hPa 0,0 l/m 0,0 km/h (0 Bft) NO 45 0 min 0,0 UV-I -7,0 C -2,2 C 0,0 km/h (0 Bft)
12.01.2010 14:40 -4,0 C 1,6 C -4,7 C -2,3 C -2,3 C 1,7 C 80 % 93 % 45 % 1016,7 hPa 0,0 l/m 0,0 km/h (0 Bft) NO 45 0 min 0,0 UV-I -6,9 C -2,3 C 2,6 km/h (1 Bft)
12.01.2010 14:45 -4,1 C 1,6 C -4,7 C -2,4 C -2,4 C 1,7 C 80 % 93 % 45 % 1016,7 hPa 0,0 l/m 0,2 km/h (0 Bft) NO 45 0 min 0,0 UV-I -7,0 C -2,4 C 1,6 km/h (1 Bft)
12.01.2010 14:50 -4,1 C 1,6 C -4,8 C -2,2 C -2,2 C 1,9 C 81 % 93 % 50 % 1016,7 hPa 0,0 l/m 0,2 km/h (0 Bft) NO 45 0 min 0,0 UV-I -6,9 C -2,2 C 0,0 km/h (0 Bft)
12.01.2010 14:55 -4,1 C 1,6 C -4,9 C -2,3 C -2,3 C 1,8 C 81 % 93 % 47 % 1016,5 hPa 0,0 l/m 0,0 km/h (0 Bft) NO 45 0 min 0,0 UV-I -6,9 C -2,3 C 0,0 km/h (0 Bft)
12.01.2010 15:00 -4,1 C 1,6 C -4,9 C -2,3 C -2,3 C 1,8 C 81 % 93 % 47 % 1016,5 hPa 0,0 l/m 0,2 km/h (0 Bft) NO 45 0 min 0,0 UV-I -6,9 C -2,3 C 1,9 km/h (1 Bft)
12.01.2010 15:10 -4,1 C 1,6 C -4,8 C -2,8 C -2,8 C 1,3 C 81 % 93 % 34 % 1016,5 hPa 0,0 l/m 0,5 km/h (0 Bft) NO 45 0 min 0,0 UV-I -6,9 C -2,8 C 0,0 km/h (0 Bft)
12.01.2010 15:15 -4,1 C 1,6 C -4,8 C -2,9 C -2,9 C 1,2 C 81 % 93 % 32 % 1016,8 hPa 0,0 l/m 0,0 km/h (0 Bft) NO 45 0 min 0,0 UV-I -6,9 C -2,9 C 0,0 km/h (0 Bft)
12.01.2010 15:20 -4,3 C 1,6 C -4,8 C -2,8 C -2,8 C 1,5 C 81 % 94 % 39 % 1016,8 hPa 0,0 l/m 0,0 km/h (0 Bft) NO 45 0 min 0,0 UV-I -7,1 C -2,8 C 0,0 km/h (0 Bft)
12.01.2010 15:25 -4,3 C 1,8 C -4,9 C -3,6 C -3,6 C 0,7 C 81 % 93 % 18 % 1016,8 hPa 0,0 l/m 0,0 km/h (0 Bft) NO 45 0 min 0,0 UV-I -7,1 C -3,6 C 0,0 km/h (0 Bft)
12.01.2010 15:30 -4,3 C 1,8 C -4,9 C -4,1 C -4,1 C 0,2 C 81 % 93 % 5 % 1016,8 hPa 0,0 l/m 0,0 km/h (0 Bft) NO 45 0 min 0,0 UV-I -7,1 C -4,1 C 0,0 km/h (0 Bft)
12.01.2010 15:35 -4,5 C 1,8 C -5,1 C -4,6 C -4,8 C 0,0 C 81 % 93 % 0 % 1016,6 hPa 0,0 l/m 0,0 km/h (0 Bft) NO 45 0 min 0,0 UV-I -7,3 C -4,8 C 0,0 km/h (0 Bft)
12.01.2010 15:40 -4,5 C 1,8 C -5,3 C -4,7 C -5,0 C 0,0 C 82 % 93 % 0 % 1016,6 hPa 0,0 l/m 0,2 km/h (0 Bft) NO 45 0 min 0,0 UV-I -7,1 C -5,0 C 0,0 km/h (0 Bft)
12.01.2010 15:45 -4,6 C 1,8 C -5,5 C -4,9 C -5,5 C 0,0 C 82 % 93 % 0 % 1016,6 hPa 0,0 l/m 0,0 km/h (0 Bft) NO 45 0 min 0,0 UV-I -7,2 C -5,5 C 0,0 km/h (0 Bft)
12.01.2010 15:50 -4,5 C 1,8 C -5,5 C -4,9 C -5,8 C 0,0 C 82 % 93 % 0 % 1016,6 hPa 0,0 l/m 0,0 km/h (0 Bft) NO 45 0 min 0,0 UV-I -7,1 C -5,8 C 0,0 km/h (0 Bft)
12.01.2010 15:55 -4,7 C 1,8 C -5,5 C -5,2 C -6,1 C 0,0 C 83 % 93 % 0 % 1016,6 hPa 0,0 l/m 0,0 km/h (0 Bft) NO 45 0 min 0,0 UV-I -7,1 C -6,1 C 0,0 km/h (0 Bft)
12.01.2010 16:00 -4,9 C 1,8 C -5,6 C -5,4 C -6,3 C 0,0 C 83 % 93 % 0 % 1016,6 hPa 0,0 l/m 0,0 km/h (0 Bft) NO 45 0 min 0,0 UV-I -7,3 C -6,3 C 0,0 km/h (0 Bft)
12.01.2010 16:10 -5,1 C 1,8 C -6,1 C -5,7 C -6,9 C 0,0 C 82 % 92 % 0 % 1016,6 hPa 0,0 l/m 0,0 km/h (0 Bft) NO 45 0 min 0,0 UV-I -7,7 C -6,9 C 0,0 km/h (0 Bft)
12.01.2010 16:15 -5,2 C 1,9 C -6,1 C -5,8 C -7,1 C 0,0 C 83 % 93 % 0 % 1016,6 hPa 0,0 l/m 0,0 km/h (0 Bft) NO 45 0 min 0,0 UV-I -7,6 C -7,1 C 0,0 km/h (0 Bft)
12.01.2010 16:20 -5,3 C 1,9 C -6,1 C -5,9 C -7,2 C 0,0 C 83 % 93 % 0 % 1016,6 hPa 0,0 l/m 0,2 km/h (0 Bft) NO 45 0 min 0,0 UV-I -7,7 C -7,2 C 1,8 km/h (1 Bft)
12.01.2010 16:25 -5,5 C 1,9 C -6,1 C -6,1 C -7,4 C 0,0 C 83 % 93 % 0 % 1016,6 hPa 0,0 l/m 0,2 km/h (0 Bft) NO 45 0 min 0,0 UV-I -7,9 C -7,4 C 0,0 km/h (0 Bft)
12.01.2010 16:30 -5,6 C 1,9 C -6,3 C -6,3 C -7,6 C 0,0 C 83 % 93 % 0 % 1016,6 hPa 0,0 l/m 0,2 km/h (0 Bft) NO 45 0 min 0,0 UV-I -8,0 C -7,6 C 0,0 km/h (0 Bft)
12.01.2010 16:35 -5,6 C 1,9 C -6,4 C -6,3 C -7,8 C 0,0 C 84 % 93 % 0 % 1016,6 hPa 0,0 l/m 0,0 km/h (0 Bft) NO 45 0 min 0,0 UV-I -7,9 C -7,8 C 0,0 km/h (0 Bft)
12.01.2010 16:40 -5,7 C 2,0 C -6,5 C -6,5 C -8,0 C 0,0 C 84 % 93 % 0 % 1016,6 hPa 0,0 l/m 0,0 km/h (0 Bft) NO 45 0 min 0,0 UV-I -8,0 C -8,0 C 0,0 km/h (0 Bft)
12.01.2010 16:45 -5,7 C 2,0 C -6,8 C -6,5 C -8,1 C 0,0 C 84 % 93 % 0 % 1016,6 hPa 0,0 l/m 0,2 km/h (0 Bft) NO 45 0 min 0,0 UV-I -8,0 C -8,1 C 0,0 km/h (0 Bft)
12.01.2010 16:50 -6,0 C 2,0 C -6,8 C -6,7 C -8,1 C 0,0 C 84 % 93 % 0 % 1016,6 hPa 0,0 l/m 0,5 km/h (0 Bft) NO 45 0 min 0,0 UV-I -8,3 C -8,1 C 2,9 km/h (1 Bft)
12.01.2010 16:55 -6,1 C 2,0 C -6,9 C -6,8 C -8,1 C 0,0 C 84 % 92 % 0 % 1016,6 hPa 0,0 l/m 1,6 km/h (1 Bft) NO 45 0 min 0,0 UV-I -8,4 C -8,1 C 2,3 km/h (1 Bft)
12.01.2010 17:00 -6,4 C 2,0 C -7,2 C -7,0 C -8,3 C 0,0 C 84 % 92 % 0 % 1016,6 hPa 0,0 l/m 1,9 km/h (1 Bft) NO 45 0 min 0,0 UV-I -8,6 C -8,3 C 2,3 km/h (1 Bft)
12.01.2010 17:05 -6,5 C 2,0 C -7,3 C -7,2 C -8,5 C 0,0 C 84 % 92 % 0 % 1016,6 hPa 0,0 l/m 2,1 km/h (1 Bft) NO 45 0 min 0,0 UV-I -8,7 C -8,5 C 5,1 km/h (1 Bft)
12.01.2010 17:10 -6,5 C 1,9 C -7,1 C -7,5 C -9,5 C 0,0 C 84 % 92 % 0 % 1016,6 hPa 0,0 l/m 3,1 km/h (1 Bft) NO 45 0 min 0,0 UV-I -8,7 C -9,5 C 3,5 km/h (1 Bft)
12.01.2010 17:15 -6,5 C 1,9 C -7,2 C -7,7 C -10,2 C 0,0 C 84 % 92 % 0 % 1016,4 hPa 0,0 l/m 4,0 km/h (1 Bft) NO 45 0 min 0,0 UV-I -8,7 C -10,2 C 6,6 km/h (2 Bft)
12.01.2010 17:20 -6,7 C 1,9 C -7,2 C -7,9 C -10,4 C 0,0 C 84 % 92 % 0 % 1016,4 hPa 0,0 l/m 4,5 km/h (1 Bft) NO 45 0 min 0,0 UV-I -8,9 C -10,4 C 4,5 km/h (1 Bft)
12.01.2010 17:25 -6,7 C 1,9 C -7,1 C -7,9 C -10,4 C 0,0 C 84 % 92 % 0 % 1016,4 hPa 0,0 l/m 4,5 km/h (1 Bft) NO 45 0 min 0,0 UV-I -8,9 C -10,4 C 5,3 km/h (1 Bft)
12.01.2010 17:30 -6,7 C 1,7 C -7,1 C -7,8 C -10,1 C 0,0 C 83 % 92 % 0 % 1016,4 hPa 0,0 l/m 4,3 km/h (1 Bft) NO 45 0 min 0,0 UV-I -9,1 C -10,1 C 5,6 km/h (1 Bft)
12.01.2010 17:35 -6,7 C 1,7 C -7,1 C -7,8 C -10,1 C 0,0 C 83 % 92 % 0 % 1016,7 hPa 0,0 l/m 4,0 km/h (1 Bft) NO 45 0 min 0,0 UV-I -9,1 C -10,1 C 3,9 km/h (1 Bft)
12.01.2010 17:40 -6,9 C 1,7 C -7,2 C -7,9 C -9,9 C 0,0 C 83 % 92 % 0 % 1016,7 hPa 0,0 l/m 3,7 km/h (1 Bft) NO 45 0 min 0,0 UV-I -9,3 C -9,9 C 3,1 km/h (1 Bft)
12.01.2010 17:45 -7,0 C 1,9 C -7,3 C -7,8 C -9,4 C 0,0 C 83 % 92 % 0 % 1016,7 hPa 0,0 l/m 2,9 km/h (1 Bft) NO 45 0 min 0,0 UV-I -9,4 C -9,4 C 2,6 km/h (1 Bft)
12.01.2010 17:50 -6,9 C 1,9 C -7,3 C -7,6 C -9,1 C 0,0 C 83 % 92 % 0 % 1016,7 hPa 0,0 l/m 2,4 km/h (1 Bft) NO 45 0 min 0,0 UV-I -9,3 C -9,1 C 3,4 km/h (1 Bft)
12.01.2010 17:55 -7,1 C 1,9 C -7,3 C -7,9 C -9,6 C 0,0 C 83 % 92 % 0 % 1016,4 hPa 0,0 l/m 2,7 km/h (1 Bft) NO 45 0 min 0,0 UV-I -9,5 C -9,6 C 2,1 km/h (1 Bft)
12.01.2010 18:00 -7,2 C 1,9 C -7,5 C -7,9 C -9,4 C 0,0 C 83 % 92 % 0 % 1016,4 hPa 0,0 l/m 2,4 km/h (1 Bft) NO 45 0 min 0,0 UV-I -9,6 C -9,4 C 1,9 km/h (1 Bft)
12.01.2010 18:10 -7,3 C 1,9 C -7,9 C -8,0 C -9,4 C 0,0 C 83 % 92 % 0 % 1016,4 hPa 0,0 l/m 0,2 km/h (0 Bft) NO 45 0 min 0,0 UV-I -9,7 C -9,4 C 0,0 km/h (0 Bft)
12.01.2010 18:15 -7,5 C 1,9 C -8,0 C -8,2 C -9,7 C 0,0 C 83 % 92 % 0 % 1016,4 hPa 0,0 l/m 0,6 km/h (0 Bft) NO 45 0 min 0,0 UV-I -9,9 C -9,7 C 2,6 km/h (1 Bft)
12.01.2010 18:20 -7,6 C 1,9 C -8,1 C -8,3 C -9,6 C 0,0 C 84 % 92 % 0 % 1016,4 hPa 0,0 l/m 1,0 km/h (0 Bft) NO 45 0 min 0,0 UV-I -9,8 C -9,6 C 0,0 km/h (0 Bft)
12.01.2010 18:25 -7,5 C 1,9 C -8,1 C -8,2 C -9,7 C 0,0 C 84 % 92 % 0 % 1016,4 hPa 0,0 l/m 0,6 km/h (0 Bft) NO 45 0 min 0,0 UV-I -9,7 C -9,7 C 0,0 km/h (0 Bft)
12.01.2010 18:30 -7,7 C 1,9 C -8,3 C -8,4 C -9,8 C 0,0 C 84 % 91 % 0 % 1016,4 hPa 0,0 l/m 0,2 km/h (0 Bft) NO 45 0 min 0,0 UV-I -9,9 C -9,8 C 1,6 km/h (1 Bft)
12.01.2010 18:35 -7,6 C 2,0 C -8,3 C -8,3 C -9,7 C 0,0 C 85 % 91 % 0 % 1016,1 hPa 0,0 l/m 0,8 km/h (0 Bft) NO 45 0 min 0,0 UV-I -9,7 C -9,7 C 2,6 km/h (1 Bft)
12.01.2010 18:40 -7,6 C 1,9 C -8,1 C -8,2 C -9,5 C 0,0 C 85 % 92 % 0 % 1016,1 hPa 0,0 l/m 1,8 km/h (1 Bft) NO 45 0 min 0,0 UV-I -9,7 C -9,5 C 2,3 km/h (1 Bft)
12.01.2010 18:45 -7,7 C 1,9 C -8,3 C -8,3 C -9,4 C 0,0 C 85 % 92 % 0 % 1016,1 hPa 0,0 l/m 1,4 km/h (1 Bft) NO 45 0 min 0,0 UV-I -9,8 C -9,4 C 0,0 km/h (0 Bft)
12.01.2010 18:50 -7,7 C 1,9 C -8,4 C -8,3 C -9,5 C 0,0 C 85 % 92 % 0 % 1016,1 hPa 0,0 l/m 0,6 km/h (0 Bft) NO 45 0 min 0,0 UV-I -9,8 C -9,5 C 0,0 km/h (0 Bft)
12.01.2010 18:55 -7,8 C 2,0 C -8,3 C -8,5 C -9,8 C 0,0 C 85 % 92 % 0 % 1015,9 hPa 0,0 l/m 0,0 km/h (0 Bft) NO 45 0 min 0,0 UV-I -9,9 C -9,8 C 0,0 km/h (0 Bft)
12.01.2010 19:00 -7,7 C 2,0 C -8,5 C -8,4 C -9,8 C 0,0 C 85 % 92 % 0 % 1015,9 hPa 0,0 l/m 0,0 km/h (0 Bft) NO 45 0 min 0,0 UV-I -9,8 C -9,8 C 0,0 km/h (0 Bft)
12.01.2010 19:10 -7,8 C 2,0 C -8,5 C -8,4 C -9,7 C 0,0 C 86 % 92 % 0 % 1015,9 hPa 0,0 l/m 0,3 km/h (0 Bft) NO 45 0 min 0,0 UV-I -9,7 C -9,7 C 0,0 km/h (0 Bft)
12.01.2010 19:15 -7,8 C 1,9 C -8,5 C -8,4 C -9,7 C 0,0 C 85 % 92 % 0 % 1015,9 hPa 0,0 l/m 0,0 km/h (0 Bft) NO 45 0 min 0,0 UV-I -9,9 C -9,7 C 0,0 km/h (0 Bft)
12.01.2010 19:20 -7,8 C 1,9 C -8,7 C -8,5 C -9,9 C 0,0 C 85 % 92 % 0 % 1015,9 hPa 0,0 l/m 0,0 km/h (0 Bft) NO 45 0 min 0,0 UV-I -9,9 C -9,9 C 0,0 km/h (0 Bft)
12.01.2010 19:25 -8,0 C 1,9 C -8,9 C -8,7 C -10,1 C 0,0 C 85 % 91 % 0 % 1015,9 hPa 0,0 l/m 0,2 km/h (0 Bft) NO 45 0 min 0,0 UV-I -10,1 C -10,1 C 0,0 km/h (0 Bft)
12.01.2010 19:30 -8,0 C 1,9 C -8,9 C -8,7 C -10,0 C 0,0 C 85 % 91 % 0 % 1015,9 hPa 0,0 l/m 0,6 km/h (0 Bft) NO 45 0 min 0,0 UV-I -10,1 C -10,0 C 0,0 km/h (0 Bft)
12.01.2010 19:35 -8,0 C 2,0 C -9,1 C -8,7 C -10,0 C 0,0 C 86 % 91 % 0 % 1015,2 hPa 0,0 l/m 0,6 km/h (0 Bft) NO 45 0 min 0,0 UV-I -9,9 C -10,0 C 0,0 km/h (0 Bft)
12.01.2010 19:40 -7,9 C 2,0 C -9,0 C -8,6 C -10,0 C 0,0 C 86 % 92 % 0 % 1015,2 hPa 0,0 l/m 0,3 km/h (0 Bft) NO 45 0 min 0,0 UV-I -9,8 C -10,0 C 0,0 km/h (0 Bft)
12.01.2010 19:45 -8,1 C 1,9 C -8,9 C -8,8 C -10,1 C 0,0 C 85 % 92 % 0 % 1015,2 hPa 0,0 l/m 0,2 km/h (0 Bft) NO 45 0 min 0,0 UV-I -10,2 C -10,1 C 0,0 km/h (0 Bft)
12.01.2010 19:50 -8,1 C 1,9 C -9,1 C -8,8 C -10,1 C 0,0 C 86 % 92 % 0 % 1015,2 hPa 0,0 l/m 0,3 km/h (0 Bft) NO 45 0 min 0,0 UV-I -10,0 C -10,1 C 0,0 km/h (0 Bft)
12.01.2010 19:55 -8,1 C 2,0 C -8,9 C -8,7 C -10,0 C 0,0 C 86 % 92 % 0 % 1015,2 hPa 0,0 l/m 0,6 km/h (0 Bft) NO 45 0 min 0,0 UV-I -10,0 C -10,0 C 2,6 km/h (1 Bft)
12.01.2010 20:00 -8,1 C 1,9 C -8,8 C -8,7 C -10,0 C 0,0 C 86 % 92 % 0 % 1015,2 hPa 0,0 l/m 0,5 km/h (0 Bft) NO 45 0 min 0,0 UV-I -10,0 C -10,0 C 2,6 km/h (1 Bft)
12.01.2010 20:10 -8,1 C 2,0 C -8,9 C -8,8 C -10,1 C 0,0 C 86 % 92 % 0 % 1015,2 hPa 0,0 l/m 0,5 km/h (0 Bft) NO 45 0 min 0,0 UV-I -10,0 C -10,1 C 0,0 km/h (0 Bft)
12.01.2010 20:15 -8,1 C 1,9 C -8,9 C -8,7 C -9,8 C 0,0 C 86 % 92 % 0 % 1015,0 hPa 0,0 l/m 1,6 km/h (1 Bft) NO 45 0 min 0,0 UV-I -10,0 C -9,8 C 2,7 km/h (1 Bft)
12.01.2010 20:20 -8,0 C 1,9 C -8,5 C -9,0 C -11,1 C 0,0 C 86 % 92 % 0 % 1015,0 hPa 0,0 l/m 3,2 km/h (1 Bft) NO 45 0 min 0,0 UV-I -9,9 C -11,1 C 3,5 km/h (1 Bft)
12.01.2010 20:25 -7,7 C 1,9 C -8,3 C -8,6 C -10,4 C 0,0 C 86 % 93 % 0 % 1015,0 hPa 0,0 l/m 2,9 km/h (1 Bft) NO 45 0 min 0,0 UV-I -9,6 C -10,4 C 2,7 km/h (1 Bft)
12.01.2010 20:30 -7,7 C 1,9 C -8,3 C -8,3 C -9,6 C 0,0 C 86 % 93 % 0 % 1015,0 hPa 0,0 l/m 2,1 km/h (1 Bft) NO 45 0 min 0,0 UV-I -9,6 C -9,6 C 0,0 km/h (0 Bft)
12.01.2010 20:35 -7,7 C 1,9 C -8,1 C -8,2 C -9,3 C 0,0 C 85 % 93 % 0 % 1015,0 hPa 0,0 l/m 1,4 km/h (1 Bft) NO 45 0 min 0,0 UV-I -9,8 C -9,3 C 2,6 km/h (1 Bft)
12.01.2010 20:40 -7,7 C 1,9 C -8,4 C -8,3 C -9,4 C 0,0 C 85 % 92 % 0 % 1015,0 hPa 0,0 l/m 1,0 km/h (0 Bft) NO 45 0 min 0,0 UV-I -9,8 C -9,4 C 0,0 km/h (0 Bft)
12.01.2010 20:45 -7,7 C 1,9 C -8,5 C -8,3 C -9,6 C 0,0 C 85 % 92 % 0 % 1015,0 hPa 0,0 l/m 0,5 km/h (0 Bft) NO 45 0 min 0,0 UV-I -9,8 C -9,6 C 0,0 km/h (0 Bft)
12.01.2010 20:50 -7,9 C 1,9 C -8,5 C -8,5 C -9,7 C 0,0 C 85 % 92 % 0 % 1015,0 hPa 0,0 l/m 0,2 km/h (0 Bft) NO 45 0 min 0,0 UV-I -10,0 C -9,7 C 0,0 km/h (0 Bft)
12.01.2010 20:55 -7,9 C 1,9 C -8,7 C -8,6 C -10,0 C 0,0 C 85 % 92 % 0 % 1014,7 hPa 0,0 l/m 0,3 km/h (0 Bft) NO 45 0 min 0,0 UV-I -10,0 C -10,0 C 2,1 km/h (1 Bft)
12.01.2010 21:00 -8,1 C 1,9 C -8,8 C -8,7 C -10,0 C 0,0 C 85 % 92 % 0 % 1014,7 hPa 0,0 l/m 1,0 km/h (0 Bft) NO 45 0 min 0,0 UV-I -10,2 C -10,0 C 4,7 km/h (1 Bft)
12.01.2010 21:05 -8,0 C 1,8 C -8,5 C -9,0 C -11,0 C 0,0 C 85 % 92 % 0 % 1014,7 hPa 0,0 l/m 2,9 km/h (1 Bft) NO 45 0 min 0,0 UV-I -10,1 C -11,0 C 7,1 km/h (2 Bft)
12.01.2010 21:10 -8,0 C 1,8 C -8,4 C -9,1 C -11,3 C 0,0 C 85 % 92 % 0 % 1014,7 hPa 0,0 l/m 3,4 km/h (1 Bft) NO 45 0 min 0,0 UV-I -10,1 C -11,3 C 3,2 km/h (1 Bft)
12.01.2010 21:15 -7,9 C 1,8 C -8,3 C -8,9 C -10,9 C 0,0 C 85 % 92 % 0 % 1014,7 hPa 0,0 l/m 3,2 km/h (1 Bft) NO 45 0 min 0,0 UV-I -10,0 C -10,9 C 3,1 km/h (1 Bft)
12.01.2010 21:20 -7,5 C 1,8 C -8,0 C -8,7 C -11,0 C 0,0 C 85 % 92 % 0 % 1014,7 hPa 0,0 l/m 3,7 km/h (1 Bft) NO 45 0 min 0,0 UV-I -9,6 C -11,0 C 4,3 km/h (1 Bft)
12.01.2010 21:25 -7,5 C 1,8 C -7,9 C -8,7 C -11,2 C 0,0 C 85 % 92 % 0 % 1014,7 hPa 0,0 l/m 4,5 km/h (1 Bft) NO 45 0 min 0,0 UV-I -9,6 C -11,2 C 8,2 km/h (2 Bft)
12.01.2010 21:30 -7,7 C 1,8 C -7,9 C -8,9 C -11,2 C 0,0 C 84 % 92 % 0 % 1014,7 hPa 0,0 l/m 4,3 km/h (1 Bft) NO 45 0 min 0,0 UV-I -9,9 C -11,2 C 3,1 km/h (1 Bft)
12.01.2010 21:35 -7,7 C 1,8 C -8,0 C -8,6 C -10,5 C 0,0 C 84 % 92 % 0 % 1014,3 hPa 0,0 l/m 3,1 km/h (1 Bft) NO 45 0 min 0,0 UV-I -9,9 C -10,5 C 4,3 km/h (1 Bft)
12.01.2010 21:40 -7,9 C 1,8 C -8,1 C -8,8 C -10,6 C 0,0 C 84 % 92 % 0 % 1014,3 hPa 0,0 l/m 3,1 km/h (1 Bft) NO 45 0 min 0,0 UV-I -10,1 C -10,6 C 3,9 km/h (1 Bft)
12.01.2010 21:42 -7,7 C 1,8 C -7,9 C -8,8 C -11,0 C 0,0 C 85 % 92 % 0 % 1014,3 hPa 0,0 l/m 3,7 km/h (1 Bft) NO 45 0 min 0,0 UV-I -9,8 C -11,0 C 6,9 km/h (2 Bft)
12.01.2010 21:46 -7,7 C 1,8 C -7,9 C -8,8 C -11,0 C 0,0 C 85 % 92 % 0 % 1014,3 hPa 0,0 l/m 3,7 km/h (1 Bft) NO 45 0 min 0,0 UV-I -9,8 C -11,0 C 6,9 km/h (2 Bft)
12.01.2010 21:50 -7,6 C 1,8 C -7,7 C -8,7 C -11,0 C 0,0 C 85 % 92 % 0 % 1014,3 hPa 0,0 l/m 4,0 km/h (1 Bft) NO 45 0 min 0,0 UV-I -9,7 C -11,0 C 4,8 km/h (1 Bft)
12.01.2010 21:55 -7,3 C 1,8 C -7,5 C -8,5 C -10,8 C 0,0 C 84 % 92 % 0 % 1014,3 hPa 0,0 l/m 4,0 km/h (1 Bft) NO 45 0 min 0,0 UV-I -9,5 C -10,8 C 4,0 km/h (1 Bft)
12.01.2010 22:00 -7,3 C 1,8 C -7,5 C -8,2 C -9,9 C 0,0 C 84 % 92 % 0 % 1014,3 hPa 0,0 l/m 2,9 km/h (1 Bft) NO 45 0 min 0,0 UV-I -9,5 C -9,9 C 0,0 km/h (0 Bft)
12.01.2010 22:05 -7,3 C 1,8 C -7,7 C -7,9 C -9,0 C 0,0 C 84 % 91 % 0 % 1014,3 hPa 0,0 l/m 1,6 km/h (1 Bft) NO 45 0 min 0,0 UV-I -9,5 C -9,0 C 2,1 km/h (1 Bft)
12.01.2010 22:10 -7,3 C 1,8 C -7,7 C -7,9 C -9,1 C 0,0 C 84 % 91 % 0 % 1014,3 hPa 0,0 l/m 1,6 km/h (1 Bft) NO 45 0 min 0,0 UV-I -9,5 C -9,1 C 2,6 km/h (1 Bft)
12.01.2010 22:12 -7,3 C 1,8 C -7,7 C -8,4 C -10,6 C 0,0 C 83 % 91 % 0 % 1014,0 hPa 0,0 l/m 3,4 km/h (1 Bft) NO 45 0 min 0,0 UV-I -9,7 C -10,6 C 5,1 km/h (1 Bft)
12.01.2010 22:17 -7,3 C 1,8 C -7,7 C -8,8 C -11,9 C 0,0 C 83 % 91 % 0 % 1014,0 hPa 0,0 l/m 5,6 km/h (1 Bft) NO 45 0 min 0,0 UV-I -9,7 C -15,5 C 8,7 km/h (2 Bft)
12.01.2010 22:21 -7,3 C 1,8 C -7,7 C -8,8 C -11,9 C 0,0 C 83 % 91 % 0 % 1014,0 hPa 0,0 l/m 5,6 km/h (1 Bft) NO 45 0 min 0,0 UV-I -9,7 C -15,5 C 8,7 km/h (2 Bft)
12.01.2010 22:25 -7,3 C 1,8 C -7,6 C -9,0 C -12,4 C 0,0 C 83 % 90 % 0 % 1014,0 hPa 0,0 l/m 7,2 km/h (2 Bft) NO 45 0 min 0,0 UV-I -9,7 C -16,9 C 11,1 km/h (2 Bft)
12.01.2010 22:30 -7,3 C 1,8 C -7,5 C -8,9 C -12,0 C 0,0 C 83 % 90 % 0 % 1014,0 hPa 0,0 l/m 6,6 km/h (2 Bft) NO 45 0 min 0,0 UV-I -9,7 C -16,2 C 5,8 km/h (2 Bft)
12.01.2010 22:35 -7,4 C 1,8 C -7,5 C -8,7 C -11,2 C 0,0 C 83 % 90 % 0 % 1014,0 hPa 0,0 l/m 5,0 km/h (1 Bft) NO 45 0 min 0,0 UV-I -9,8 C -14,3 C 5,5 km/h (1 Bft)
12.01.2010 22:40 -7,5 C 1,8 C -7,6 C -8,7 C -11,2 C 0,0 C 83 % 90 % 0 % 1014,0 hPa 0,0 l/m 4,7 km/h (1 Bft) NO 45 0 min 0,0 UV-I -9,9 C -14,1 C 4,8 km/h (1 Bft)
12.01.2010 22:45 -7,5 C 1,8 C -7,7 C -8,8 C -11,5 C 0,0 C 83 % 90 % 0 % 1014,0 hPa 0,0 l/m 5,0 km/h (1 Bft) NO 45 0 min 0,0 UV-I -9,9 C -14,6 C 5,0 km/h (1 Bft)
12.01.2010 22:50 -7,5 C 1,8 C -7,7 C -8,9 C -11,6 C 0,0 C 83 % 90 % 0 % 1014,0 hPa 0,0 l/m 5,1 km/h (1 Bft) NO 45 0 min 0,0 UV-I -9,9 C -14,8 C 4,8 km/h (1 Bft)
12.01.2010 22:55 -7,5 C 1,8 C -7,7 C -8,8 C -11,5 C 0,0 C 83 % 90 % 0 % 1014,0 hPa 0,0 l/m 5,0 km/h (1 Bft) NO 45 0 min 0,0 UV-I -9,9 C -14,6 C 6,0 km/h (2 Bft)
12.01.2010 23:00 -7,5 C 1,8 C -7,5 C -8,7 C -11,2 C 0,0 C 83 % 90 % 0 % 1014,0 hPa 0,0 l/m 4,5 km/h (1 Bft) NO 45 0 min 0,0 UV-I -9,9 C -11,2 C 3,2 km/h (1 Bft)
12.01.2010 23:10 -7,3 C 1,8 C -7,6 C -8,4 C -10,6 C 0,0 C 84 % 90 % 0 % 1014,0 hPa 0,0 l/m 3,7 km/h (1 Bft) NO 45 0 min 0,0 UV-I -9,5 C -10,6 C 3,9 km/h (1 Bft)
12.01.2010 23:15 -7,3 C 1,8 C -7,6 C -8,4 C -10,6 C 0,0 C 83 % 90 % 0 % 1014,2 hPa 0,0 l/m 3,7 km/h (1 Bft) NO 45 0 min 0,0 UV-I -9,7 C -10,6 C 4,5 km/h (1 Bft)
12.01.2010 23:20 -7,3 C 1,8 C -7,6 C -8,5 C -10,8 C 0,0 C 83 % 90 % 0 % 1014,2 hPa 0,0 l/m 4,0 km/h (1 Bft) NO 45 0 min 0,0 UV-I -9,7 C -10,8 C 4,5 km/h (1 Bft)
12.01.2010 23:25 -7,5 C 1,8 C -7,6 C -8,7 C -11,1 C 0,0 C 83 % 90 % 0 % 1014,2 hPa 0,0 l/m 4,3 km/h (1 Bft) NO 45 0 min 0,0 UV-I -9,9 C -11,1 C 5,1 km/h (1 Bft)
12.01.2010 23:30 -7,5 C 1,8 C -7,6 C -8,7 C -11,1 C 0,0 C 83 % 90 % 0 % 1014,2 hPa 0,0 l/m 4,3 km/h (1 Bft) NO 45 0 min 0,0 UV-I -9,9 C -11,1 C 5,0 km/h (1 Bft)
12.01.2010 23:35 -7,6 C 1,8 C -7,6 C -8,8 C -11,2 C 0,0 C 83 % 90 % 0 % 1013,8 hPa 0,0 l/m 4,5 km/h (1 Bft) NO 45 0 min 0,0 UV-I -10,0 C -11,2 C 2,9 km/h (1 Bft)
12.01.2010 23:40 -7,7 C 1,8 C -7,7 C -8,8 C -11,0 C 0,0 C 83 % 90 % 0 % 1013,8 hPa 0,0 l/m 4,0 km/h (1 Bft) NO 45 0 min 0,0 UV-I -10,1 C -11,0 C 3,2 km/h (1 Bft)
12.01.2010 23:45 -7,9 C 1,8 C -8,0 C -8,7 C -10,2 C 0,0 C 83 % 90 % 0 % 1013,8 hPa 0,0 l/m 2,6 km/h (1 Bft) NO 45 0 min 0,0 UV-I -10,3 C -10,2 C 1,8 km/h (1 Bft)
12.01.2010 23:50 -8,1 C 1,8 C -8,1 C -8,6 C -9,5 C 0,0 C 82 % 90 % 0 % 1013,8 hPa 0,0 l/m 1,6 km/h (1 Bft) NO 45 0 min 0,0 UV-I -10,6 C -9,5 C 0,0 km/h (0 Bft)
12.01.2010 23:55 -8,1 C 1,8 C -8,3 C -8,7 C -9,9 C 0,0 C 83 % 90 % 0 % 1013,6 hPa 0,0 l/m 0,2 km/h (0 Bft) NO 45 0 min 0,0 UV-I -10,5 C -9,9 C 0,0 km/h (0 Bft)
_ Min-Zeit 08:30 13:10 09:10 08:30 08:30 00:00 13:40 08:20 00:00 23:55 - 00:00 - - - 00:00 09:00 22:25 00:00
Minimum _ -10,7 C 1,6 C -12,2 C -12,0 C -14,7 C 0,0 C 78 % 90 % 0 % 1013,6 hPa - 0,0 km/h (0 Bft) - - - 0,0 UV-I -13,3 C -16,9 C 0,0 km/h (0 Bft)
_ Max-Zeit 14:40 00:00 14:35 14:35 14:35 12:57 00:10 00:00 12:57 08:55 00:00 22:25 - - 00:00 00:00 14:50 14:35 22:25
Maximum _ -4,0 C 2,1 C -4,7 C -2,2 C -2,2 C 1,9 C 88 % 94 % 50 % 1019,3 hPa 0,0 l/m 7,2 km/h
NO (2 Bft)
- - 0 min 0,0 UV-I -6,9 C -2,2 C 11,1 km/h
NO (2 Bft)
Durchschnitt _ -7,0 C 1,9 C -7,7 C -7,4 C -8,6 C 0,2 C 84 % 92 % 6 % 1017,4 hPa #0,0 l/m 0,8 km/h (0 Bft) NO - #0 min. 0,0 UV-I -9,2 C -8,7 C 1,0 km/h (0 Bft)
2013 www.wetterstation-wechselburg.de